This is the latest recevied weather packets stored in our database for station/object N2PUI. If no packets are shown the sender has not sent any weather packets the latest 10 day(s).
| Time | Temp. | Humidity | Pressure | Rain* | Wind** | Luminosity | Snow |
|---|---|---|---|---|---|---|---|
| 1777623898 | 0° C | 89% | 1013.5 hPa | 0 mm | - | 0 W/m² | - |
| 1777623594 | 0° C | 89% | 1013.5 hPa | 0 mm | - | 0 W/m² | - |
| 1777623293 | 0° C | 89% | 1013.1 hPa | 0 mm | - | 0 W/m² | - |
| 1777622989 | 0.56° C | 89% | 1013.1 hPa | 0 mm | - | 0 W/m² | - |
| 1777622686 | 0° C | 89% | 1013.3 hPa | 0 mm | - | 0 W/m² | - |
| 1777622382 | 0° C | 89% | 1013.1 hPa | 0 mm | - | 0 W/m² | - |
| 1777622079 | 0° C | 88% | 1013.4 hPa | 0 mm | - | 0 W/m² | - |
| 1777621774 | 0° C | 88% | 1013.1 hPa | 0 mm | - | 0 W/m² | - |
| 1777621471 | 0° C | 88% | 1012.9 hPa | 0 mm | - | 0 W/m² | - |
| 1777621167 | 0° C | 88% | 1013.3 hPa | 0 mm | - | 0 W/m² | - |
| 1777620863 | 0.56° C | 88% | 1013 hPa | 0 mm | - | 0 W/m² | - |
| 1777620560 | 0.56° C | 88% | 1013.1 hPa | 0 mm | - | 0 W/m² | - |
| 1777620257 | 0.56° C | 88% | 1013.1 hPa | 0 mm | - | 0 W/m² | - |
| 1777619953 | 1.11° C | 88% | 1013.1 hPa | 0 mm | - | 0 W/m² | - |
| 1777619649 | 0.56° C | 87% | 1012.8 hPa | 0 mm | - | 0 W/m² | - |
| 1777619344 | 0.56° C | 87% | 1012.9 hPa | 0 mm | - | 0 W/m² | - |
| 1777619038 | 1.11° C | 86% | 1013.1 hPa | 0 mm | - | 0 W/m² | - |
| 1777618734 | 1.11° C | 86% | 1013.1 hPa | 0 mm | - | 0 W/m² | - |
| 1777618429 | 1.11° C | 86% | 1013 hPa | 0 mm | - | 0 W/m² | - |
| 1777618126 | 1.11° C | 85% | 1012.8 hPa | 0 mm | - | 0 W/m² | - |
| 1777617822 | 1.11° C | 85% | 1013 hPa | 0 mm | - | 0 W/m² | - |
| 1777617521 | 1.67° C | 85% | 1013.3 hPa | 0 mm | - | 0 W/m² | - |
| 1777617219 | 1.67° C | 84% | 1013.3 hPa | 0 mm | - | 0 W/m² | - |
| 1777616916 | 1.67° C | 84% | 1013.1 hPa | 0 mm | - | 0 W/m² | - |
| 1777616611 | 2.22° C | 84% | 1012.8 hPa | 0 mm | - | 0 W/m² | - |
* Rain latest hour (hover to see other rain measurements)
** Current wind speed in m/s (hover to see current wind gust speed)